Volver al catálogo

STARLINK-35215

ActivoComunicacionesSSO
NORAD 65813·PAYLOAD·🇺🇸 United States

Lanzado Sep 26, 2025 desde Vandenberg Space Force Base

Loading…

Próximos Pases (próximas 24 horas)

TLE

ActualizadoSource: CelesTrak SupGP

Época: Sep 14, 2026, 14:19 UTC

1 65813C 25218Y   26257.59701389  .00029040  00000+0  90156-3 0  2570
2 65813  97.2841 115.0494 0001743  86.0934  77.8069 15.33421043    19

Sigue STARLINK-35215 en tiempo real con AllMySat

Download on the App Store